Regional Weather Roundup
Issued by NWS

Home | Current Version | Previous Version | Text Only | Print | Product List | Glossary Off
Versions: 1 2 3 4 5 6 7 8 9 10 11 12 13 14 15 16 17 18 19 20 21 22 23 24 25 26 27 28 29 30 31 32 33 34 35 36 37 38 39 40 41 42 43 44 45 46 47 48 49 50

594
ASUS45 KABQ 251601
RWRNM
NEW MEXICO REGIONAL WEATHER ROUNDUP
NATIONAL WEATHER SERVICE ALBUQUERQUE NM
1000 AM MDT SAT MAR 25 2017

NOTE: "FAIR" MEANS FEW OR NO CLOUDS BELOW 12,000 FEET AGL WITH NO
       SIGNIFICANT WEATHER OR OBSTRUCTIONS TO VISION.

      THIS PRODUCT IS RELEASED AS TWO VERSIONS.  ONE VERSION NEAR
      THE TOP OF THE HOUR CONTAINING PRELIMINARY DATA FROM ALBUQUERQUE
      AND OTHER STATIONS.  A FINAL VERSION WITH ADDITIONAL DATA IS
      ISSUED ABOUT 10 MINUTES AFTER THE HOUR.

NMZ501-503-504-510>518-251700-
NORTHWEST PLATEAU/NORTHCENTRAL MOUNTAINS

CITY           SKY/WX    TMP DP  RH WIND       PRES   REMARKS
FARMINGTON     FAIR      46  30  53 E7        30.10F
LOS ALAMOS     FAIR      46  26  46 CALM      30.17F
SANTA FE       FAIR      49  31  49 N12       30.14F
TAOS             N/A     41  27  56 CALM      30.18F
ANGEL FIRE     FAIR      28  27  96 CALM      30.20F

$$
NMZ402-403-502-505>509-251700-
WESTCENTRAL MOUNTAINS/SOUTHWEST MOUNTAINS

CITY           SKY/WX    TMP DP  RH WIND       PRES   REMARKS
GALLUP         FAIR      44  27  51 VRB5      30.14F
GRANTS         FAIR      45  25  44 CALM      30.18F
SILVER CITY    FAIR      55  26  31 S6        30.17R

$$
NMZ407-409-411-412-251700-
SOUTHERN DESERTS

CITY           SKY/WX    TMP DP  RH WIND       PRES   REMARKS
DEMING         FAIR      58  28  32 E6        30.13F
LAS CRUCES     FAIR      58  25  27 SE9       30.16R
HOLLOMAN AFB   FAIR      55  26  33 SE7       30.18F
ALAMOGORDO     FAIR      55  25  30 N3        30.16F
T OR C         FAIR      59  23  25 NE6       30.13F

$$
NMZ519>523-251700-
CENTRAL VALLEYS/CENTRAL HIGHLANDS

CITY           SKY/WX    TMP DP  RH WIND       PRES   REMARKS
ALBUQUERQUE    PTSUNNY   50  25  37 NW3       30.15F
DOUBLE EAGLE   PTSUNNY   50  25  37 VRB3      30.16S
MORIARTY ARPT  FAIR      56  26  30 W5        30.15F
CLINES CORNERS FAIR      52  23  32 NW22      30.14F
BELEN          FAIR      51  23  33 CALM      30.15F
SOCORRO        FAIR      53  25  33 CALM      30.15F

$$
NMZ524>526-539-540-251700-
SOUTHCENTRAL MOUNTAINS

CITY           SKY/WX    TMP DP  RH WIND       PRES   REMARKS
RUIDOSO        NOT AVBL

$$
NMZ527>531-251700-
NORTHEAST HIGHLANDS/NORTHEAST PLAINS

CITY           SKY/WX    TMP DP  RH WIND       PRES   REMARKS
LAS VEGAS      FAIR      49  26  41 VRB3      30.13F
RATON          FAIR      42  29  59 NE3       30.12S
CLAYTON        FAIR      55  30  38 W5        30.10S

$$
NMZ532>537-251700-
EASTCENTRAL PLAINS

CITY           SKY/WX    TMP DP  RH WIND       PRES   REMARKS
TUCUMCARI      FAIR      52  30  43 S6        30.11F
CANNON AFB     FAIR      51  31  46 S6        30.14F
CLOVIS AIRPORT FAIR      54  30  40 SW8       30.14F

$$
NMZ028-029-538-251700-
SOUTHEAST PLAINS

CITY           SKY/WX    TMP DP  RH WIND       PRES   REMARKS
ROSWELL        FAIR      58  28  32 S15       30.15F
ARTESIA        FAIR      57  30  35 SE17      30.15F
CARLSBAD       FAIR      59  31  34 MISG      30.14F
HOBBS          SUNNY     55  30  38 CALM      30.17F


$$




USA.gov is the U.S. government's official web portal to all federal, state and local government web resources and services.